Showing default

NNSS 20 (TRANSIT 20), 6909

Orbit data source: Space-Track

NNSS 20 (TRANSIT 20), 6909 is a payload satellite owned by USN NAVAIR (US) in LEO that was launched on Tue, 30 Oct 1973 UTC via an SCOUT A-1 launch vehicle from the Air Force Western Test Range (AFWTR). Payload-class satellites include a variety of spacecraft equipped with specific instruments for various scientific and technological missions. These include communications satellites like Starlink; space stations such as the ISS; scientific satellites like the Hubble; Earth observation satellites from companies like Planet Labs, Umbra, and HawkEye 360; GPS; miniature CubeSats for education and research; and military/defense satellites.

Loading next visibility...
Identifier
6909, 1973-081A
Orbit
LEO
Country
Flag of USUS
Related business
Manufacturer
RCA/East Windsor
Mission
Spacecraft
Bus & Motor
TRANSIT 5, Unknown motor
Mass
~64 kg wet, ~64 kg dry
Launch date (UTC)
1973-10-30 (53 years ago)
Launch vehicle
SCOUT A-1
Launch site
Air Force Western Test Range (AFWTR)
Object type
Payload
Rocket body
Debris
Shape & HBR
Unknown
Radar Cross Section
Medium (>0.1 m² and <1 m²)

Expand to show TLE details & history
Last TLE update: 2 days ago

TLE from 2 days ago
0 NNSS 20 (TRANSIT 20)
1  6909U 73081A   26171.45069287  .00000180  00000-0  17444-3 0  9993
2  6909  89.8631 252.2117 0152948 228.7113 130.0798 13.71510564829611
Epoch: 2026-06-20T10:48Z
TLE epoch observation values (Epoch: 2026-06-20T10:48:59.863Z)
Latitude
-0.00009°
Longitude
-178.70287°
Altitude
1,070.747 km
Speed
7.28 km/s
True Right ascension
16h 48m 50s
True Declination
0° 00' 00"
Sunlit
Object was in full shadow at epoch
Visualization orbit readout
Latitude
Unknown
Longitude
Unknown
Altitude
Unknown
Speed
Unknown
Apparent Right ascension
Unknown
Apparent Declination
Unknown
Sunlit
N/A
Visualization observer readout
Local Sidereal Time
23:08:03
Azimuth
Unknown
Elevation
Unknown
Doppler factor
Unknown
Orbital elements
Apogee altitude
1,103.882 km
Perigee altitude
878.458 km
Semi-major axis
7,369.307 km
Eccentricity
0.01529
Inclination
89.8631°
RAAN
252.2117°
Arg. of periapsis
228.7113°
True anomaly
131.40441°
Mean anomaly
130.0798°
Eccentric anomaly
130.74374°
Mean motion
3.43086 °/min
Orbital period
104.93 mins
BSTAR
0.00017444
Loading maneuver chart data...
Computing Atmospheric mass density...
Loading historical data...
Loading historical data...
Loading historical data...
Loading historical data...
Loading historical data...
Loading historical data...
Loading historical data...
Other satellites on launch #81 in the year 1973 (1973-10-30 UTC)

Documentation

Showing up to 5 results
|